Orbital Elements at Epoch 2459200.5 (2020-Dec-17.0) TDB
Reference: JPL 20 (heliocentric ecliptic J2000)
Element | Value | Uncertainty (1-sigma) | Units |
e | .1179806696157374 | 6.099e-08 | |
a | 5.139599914717411 | 2.0587e-07 | au |
q | 4.533226475222063 | 4.5267e-07 | au |
i | 18.49221512557874 | 6.3189e-06 | deg |
node | 193.7722242871911 | 1.6867e-05 | deg |
peri | 93.97197587363644 | 4.2962e-05 | deg |
M | 296.2431744663945 | 4.8746e-05 | deg |
tp | 2459954.231353436329 (2023-Jan-09.73135344) | 0.00061342 | TDB |
period | 4255.909621693077 11.65 | 0.00025571 7.001e-07 | d yr |
n | .08458826243983669 | 5.0823e-09 | deg/d |
Q | 5.745973354212757 | 2.3016e-07 | au |
|
| | Orbit Determination Parameters
Additional Information
|